Tracking 18844 objects as of 21-Nov-2017
HD Live streaming from Space Station
objects crossing your sky now

FENGYUN 1C DEB

Track FENGYUN 1C DEB now!
10-day predictions


NORAD ID: 30297
Int'l Code: 1999-025ZJ
Perigee: 578.6 km
Apogee: 1,350.2 km
Inclination: 98.8 °
Period: 104.2 minutes
Semi major axis: 7335 km
RCS: 0.0363 m2 (small)
Launch date: May 10, 1999
Source: People's Republic of China (PRC)
Launch site: Taiyaun Space Center, China (TSC)

Note: This is SATELLITE DEBRIS
aabbcc
Your satellite tracking list
Your tracking list is empty




NASA's NSSDC Master Catalog

Two Line Element Set (TLE):
1 30297U 99025ZJ  17325.19272299  .00001049  00000-0  35303-3 0  9996
2 30297  98.7783  36.7255 0525944 311.0764  98.7399 13.81867575542461
Source of the keplerian elements: AFSPC